| time (UTC) | temp F | wind direction | speed knots | gust knots | rain 1hr in | rain 24hr in | rain mn in | humidity % | barometer mb |
| 20260509022020 | 58 | 0.0 | 0.0 | 0.00 | 0.00 | 0.00 | 81 | 1010.5 | |
| 20260509021024 | 58 | 0.0 | 0.0 | 0.00 | 0.00 | 0.00 | 82 | 1010.5 | |
| 20260509020029 | 59 | 0.0 | 0.0 | 0.00 | 0.00 | 0.00 | 80 | 1010.4 | |
| 20260509015018 | 59 | 0.0 | 0.0 | 0.00 | 0.00 | 0.00 | 79 | 1010.3 | |
| 20260509014023 | 60 | 0.0 | 0.0 | 0.00 | 0.00 | 0.00 | 77 | 1010.2 | |
| 20260509013048 | 61 | 0.0 | 0.0 | 0.00 | 0.00 | 0.00 | 74 | 1010.4 | |
| 20260509012033 | 62 | 0.0 | 0.0 | 0.00 | 0.00 | 0.00 | 71 | 1010.4 | |
| 20260509011021 | 64 | 0.0 | 0.0 | 0.00 | 0.00 | 0.00 | 69 | 1010.4 | |
| 20260509010026 | 66 | 0.0 | 0.0 | 0.00 | 0.00 | 0.00 | 62 | 1010.5 | |
| 20260509005030 | 67 | 0.0 | 0.0 | 0.00 | 0.00 | 0.00 | 59 | 1010.6 | |
| 20260509004019 | 68 | 299 | 0.0 | 0.9 | 0.00 | 0.00 | 0.00 | 57 | 1010.7 |
| 20260509003024 | 70 | 202 | 0.9 | 2.6 | 0.00 | 0.00 | 0.00 | 54 | 1010.9 |
| 20260509002049 | 70 | 203 | 1.7 | 2.6 | 0.00 | 0.00 | 0.00 | 53 | 1011.0 |
| 20260509001016 | 71 | 201 | 2.6 | 3.5 | 0.00 | 0.00 | 0.00 | 51 | 1011.0 |
| 20260509000021 | 71 | 209 | 1.7 | 5.2 | 0.00 | 0.00 | 0.00 | 51 | 1010.9 |
| 20260508235026 | 72 | 192 | 1.7 | 5.2 | 0.00 | 0.00 | 0.00 | 52 | 1010.9 |
| 20260508234031 | 72 | 184 | 2.6 | 5.2 | 0.00 | 0.00 | 0.00 | 51 | 1011.1 |
| 20260508233020 | 72 | 195 | 2.6 | 6.1 | 0.00 | 0.00 | 0.00 | 50 | 1011.1 |
| 20260508232044 | 73 | 203 | 2.6 | 6.1 | 0.00 | 0.00 | 0.00 | 49 | 1011.1 |
| 20260508231029 | 73 | 225 | 3.5 | 6.1 | 0.00 | 0.00 | 0.00 | 48 | 1011.1 |
| 20260508230017 | 74 | 183 | 1.7 | 6.1 | 0.00 | 0.00 | 0.00 | 48 | 1011.3 |
| 20260508225022 | 74 | 195 | 1.7 | 5.2 | 0.00 | 0.00 | 0.00 | 50 | 1011.4 |
| 20260508224027 | 74 | 129 | 1.7 | 5.2 | 0.00 | 0.00 | 0.00 | 49 | 1011.3 |
| 20260508223052 | 74 | 201 | 2.6 | 7.8 | 0.00 | 0.00 | 0.00 | 49 | 1011.3 |
| 20260508222100 | 74 | 219 | 1.7 | 6.1 | 0.00 | 0.00 | 0.00 | 49 | 1011.3 |
| 20260508221045 | 74 | 197 | 2.6 | 7.0 | 0.00 | 0.00 | 0.00 | 48 | 1011.3 |
| 20260508220029 | 75 | 181 | 2.6 | 7.0 | 0.00 | 0.00 | 0.00 | 49 | 1011.6 |
| 20260508215017 | 75 | 245 | 2.6 | 8.7 | 0.00 | 0.00 | 0.00 | 48 | 1011.6 |
| 20260508214043 | 75 | 181 | 2.6 | 6.1 | 0.00 | 0.00 | 0.00 | 49 | 1011.6 |
| 20260508213109 | 75 | 245 | 2.6 | 8.7 | 0.00 | 0.00 | 0.00 | 48 | 1011.9 |
| 20260508212053 | 75 | 176 | 1.7 | 5.2 | 0.00 | 0.00 | 0.00 | 47 | 1012.0 |
| 20260508211020 | 75 | 209 | 0.9 | 3.5 | 0.00 | 0.00 | 0.00 | 49 | 1012.3 |
| 20260508210026 | 74 | 203 | 1.7 | 5.2 | 0.00 | 0.00 | 0.00 | 49 | 1011.9 |
| 20260508205031 | 74 | 156 | 2.6 | 6.1 | 0.00 | 0.00 | 0.00 | 50 | 1012.0 |
| 20260508204019 | 74 | 225 | 2.6 | 7.8 | 0.00 | 0.00 | 0.00 | 50 | 1012.2 |
| 20260508203044 | 75 | 242 | 3.5 | 9.6 | 0.00 | 0.00 | 0.00 | 50 | 1012.4 |
| 20260508202028 | 75 | 193 | 1.7 | 5.2 | 0.00 | 0.00 | 0.00 | 51 | 1012.5 |
| 20260508201036 | 74 | 181 | 2.6 | 7.8 | 0.00 | 0.00 | 0.00 | 51 | 1012.6 |
| 20260508195026 | 74 | 179 | 2.6 | 6.1 | 0.00 | 0.00 | 0.00 | 51 | 1012.7 |
| 20260508194031 | 74 | 243 | 4.3 | 7.8 | 0.00 | 0.00 | 0.00 | 51 | 1013.0 |
| 20260508193021 | 73 | 203 | 2.6 | 7.0 | 0.00 | 0.00 | 0.00 | 51 | 1013.1 |
| 20260508192025 | 74 | 246 | 3.5 | 12.2 | 0.00 | 0.00 | 0.00 | 52 | 1013.4 |
| 20260508191029 | 73 | 217 | 1.7 | 5.2 | 0.00 | 0.00 | 0.00 | 53 | 1013.3 |
| 20260508190017 | 74 | 238 | 2.6 | 8.7 | 0.00 | 0.00 | 0.00 | 52 | 1013.7 |
| 20260508185022 | 73 | 203 | 2.6 | 6.1 | 0.00 | 0.00 | 0.00 | 51 | 1014.1 |
| 20260508184047 | 73 | 233 | 2.6 | 7.0 | 0.00 | 0.00 | 0.00 | 53 | 1014.1 |
| 20260508183032 | 72 | 244 | 5.2 | 9.6 | 0.00 | 0.00 | 0.00 | 53 | 1014.3 |
| 20260508182020 | 72 | 248 | 2.6 | 7.8 | 0.00 | 0.00 | 0.00 | 53 | 1014.7 |
| 20260508181025 | 72 | 150 | 2.6 | 6.1 | 0.00 | 0.00 | 0.00 | 55 | 1014.6 |
| 20260508180030 | 71 | 206 | 2.6 | 6.1 | 0.00 | 0.00 | 0.00 | 54 | 1014.7 |
| 20260508175018 | 71 | 248 | 2.6 | 8.7 | 0.00 | 0.00 | 0.00 | 55 | 1014.9 |
| 20260508174043 | 71 | 205 | 3.5 | 8.7 | 0.00 | 0.00 | 0.00 | 55 | 1015.0 |
| 20260508173029 | 71 | 251 | 4.3 | 11.3 | 0.00 | 0.00 | 0.00 | 55 | 1015.1 |
| 20260508172034 | 70 | 207 | 3.5 | 7.8 | 0.00 | 0.00 | 0.00 | 56 | 1015.2 |
| 20260508171020 | 70 | 250 | 5.2 | 7.0 | 0.00 | 0.00 | 0.00 | 56 | 1015.1 |
| 20260508170025 | 70 | 233 | 3.5 | 11.3 | 0.00 | 0.00 | 0.00 | 56 | 1015.5 |
| 20260508165030 | 69 | 255 | 3.5 | 7.8 | 0.00 | 0.00 | 0.00 | 57 | 1015.7 |
| 20260508164019 | 69 | 246 | 2.6 | 7.8 | 0.00 | 0.00 | 0.00 | 57 | 1015.8 |
| 20260508163023 | 69 | 217 | 3.5 | 8.7 | 0.00 | 0.00 | 0.00 | 58 | 1015.9 |
| 20260508162028 | 69 | 241 | 2.6 | 9.6 | 0.00 | 0.00 | 0.00 | 58 | 1016.0 |
| 20260508161016 | 68 | 192 | 3.5 | 6.1 | 0.00 | 0.00 | 0.00 | 59 | 1016.2 |
| 20260508160022 | 68 | 176 | 3.5 | 7.0 | 0.00 | 0.00 | 0.00 | 59 | 1016.3 |
| 20260508155026 | 68 | 142 | 1.7 | 7.8 | 0.00 | 0.00 | 0.00 | 59 | 1016.4 |
| 20260508154031 | 68 | 230 | 2.6 | 7.8 | 0.00 | 0.00 | 0.00 | 59 | 1016.6 |
| 20260508153020 | 67 | 225 | 2.6 | 7.0 | 0.00 | 0.00 | 0.00 | 60 | 1016.7 |
| 20260508152024 | 67 | 205 | 2.6 | 7.8 | 0.00 | 0.00 | 0.00 | 59 | 1016.9 |
| 20260508151029 | 66 | 216 | 1.7 | 3.5 | 0.00 | 0.00 | 0.00 | 63 | 1017.0 |
| 20260508150038 | 66 | 191 | 2.6 | 7.0 | 0.00 | 0.00 | 0.00 | 62 | 1017.0 |
| 20260508145043 | 65 | 199 | 1.7 | 7.8 | 0.00 | 0.00 | 0.00 | 62 | 1017.1 |
| 20260508144027 | 65 | 244 | 2.6 | 7.8 | 0.00 | 0.00 | 0.00 | 63 | 1017.5 |
| 20260508143032 | 64 | 210 | 1.7 | 6.1 | 0.00 | 0.00 | 0.00 | 63 | 1017.5 |
| 20260508142020 | 63 | 222 | 1.7 | 3.5 | 0.00 | 0.00 | 0.00 | 66 | 1017.4 |
| 20260508141025 | 63 | 252 | 3.5 | 7.0 | 0.00 | 0.00 | 0.00 | 65 | 1017.5 |
| 20260508140031 | 62 | 231 | 1.7 | 6.1 | 0.00 | 0.00 | 0.00 | 67 | 1017.5 |
| 20260508135038 | 61 | 193 | 2.6 | 6.1 | 0.00 | 0.00 | 0.00 | 66 | 1017.5 |
| 20260508134023 | 60 | 230 | 0.9 | 6.1 | 0.00 | 0.00 | 0.00 | 67 | 1017.7 |
| 20260508133028 | 60 | 218 | 1.7 | 6.1 | 0.00 | 0.00 | 0.00 | 67 | 1017.6 |
| 20260508132033 | 59 | 190 | 0.9 | 3.5 | 0.00 | 0.00 | 0.00 | 68 | 1017.7 |
| 20260508131021 | 58 | 220 | 0.9 | 3.5 | 0.00 | 0.00 | 0.00 | 68 | 1017.7 |
| 20260508130046 | 57 | 202 | 0.9 | 3.5 | 0.00 | 0.00 | 0.00 | 70 | 1017.6 |
| 20260508125032 | 57 | 178 | 0.9 | 2.6 | 0.00 | 0.00 | 0.00 | 72 | 1017.5 |
| 20260508124019 | 56 | 190 | 0.9 | 2.6 | 0.00 | 0.00 | 0.00 | 73 | 1017.5 |
| 20260508123024 | 54 | 189 | 0.9 | 1.7 | 0.00 | 0.00 | 0.00 | 75 | 1017.6 |
| 20260508122029 | 53 | 153 | 0.0 | 1.7 | 0.00 | 0.00 | 0.00 | 80 | 1017.2 |
| 20260508121016 | 50 | 116 | 0.9 | 1.7 | 0.00 | 0.00 | 0.00 | 83 | 1017.2 |
| 20260508120038 | 49 | 118 | 0.0 | 0.9 | 0.00 | 0.00 | 0.00 | 86 | 1017.2 |
| 20260508115026 | 47 | 103 | 0.0 | 0.9 | 0.00 | 0.00 | 0.00 | 91 | 1017.1 |
| 20260508114031 | 46 | 0.0 | 0.0 | 0.00 | 0.00 | 0.00 | 93 | 1016.8 | |
| 20260508113036 | 45 | 110 | 0.0 | 0.9 | 0.00 | 0.00 | 0.00 | 97 | 1016.6 |
| 20260508112042 | 44 | 0.0 | 0.0 | 0.00 | 0.00 | 0.00 | 98 | 1016.5 | |
| 20260508111030 | 44 | 0.0 | 0.0 | 0.00 | 0.00 | 0.00 | 98 | 1016.3 | |
| 20260508110034 | 44 | 0.0 | 0.0 | 0.00 | 0.00 | 0.00 | 98 | 1016.7 | |
| 20260508105059 | 44 | 0.0 | 0.0 | 0.00 | 0.00 | 0.00 | 98 | 1016.5 | |
| 20260508104027 | 44 | 0.0 | 0.0 | 0.00 | 0.00 | 0.00 | 98 | 1016.5 | |
| 20260508103033 | 44 | 72 | 0.0 | 1.7 | 0.00 | 0.00 | 0.00 | 98 | 1016.6 |
| 20260508102038 | 44 | 96 | 0.9 | 2.6 | 0.00 | 0.00 | 0.00 | 98 | 1016.5 |
| 20260508101042 | 44 | 0.0 | 0.0 | 0.00 | 0.00 | 0.00 | 98 | 1016.4 | |
| 20260508100030 | 44 | 0.0 | 0.0 | 0.00 | 0.00 | 0.00 | 98 | 1016.3 | |
| 20260508095019 | 44 | 79 | 0.9 | 2.6 | 0.00 | 0.00 | 0.00 | 98 | 1016.4 |
| 20260508094023 | 45 | 0.0 | 0.0 | 0.00 | 0.00 | 0.00 | 98 | 1016.2 | |
| 20260508093028 | 45 | 0.0 | 0.0 | 0.00 | 0.00 | 0.00 | 99 | 1016.3 | |
| 20260508092016 | 44 | 288 | 0.0 | 0.9 | 0.00 | 0.00 | 0.00 | 99 | 1016.5 |
| 20260508091021 | 44 | 0.0 | 0.0 | 0.00 | 0.00 | 0.00 | 99 | 1016.4 | |
| 20260508090026 | 43 | 0.0 | 0.0 | 0.00 | 0.00 | 0.00 | 99 | 1016.5 | |
| 20260508085031 | 43 | 0.0 | 0.0 | 0.00 | 0.00 | 0.00 | 99 | 1016.7 | |
| 20260508084100 | 43 | 0.0 | 0.0 | 0.00 | 0.00 | 0.00 | 99 | 1016.7 | |
| 20260508083024 | 43 | 0.0 | 0.0 | 0.00 | 0.00 | 0.00 | 99 | 1016.6 | |
| 20260508082049 | 43 | 0.0 | 0.0 | 0.00 | 0.00 | 0.00 | 99 | 1016.8 | |
| 20260508081017 | 43 | 0.0 | 0.0 | 0.00 | 0.00 | 0.00 | 99 | 1016.9 | |
| 20260508080022 | 44 | 0.0 | 0.0 | 0.00 | 0.00 | 0.00 | 99 | 1016.9 | |
| 20260508075047 | 44 | 0.0 | 0.0 | 0.00 | 0.00 | 0.00 | 99 | 1017.1 | |
| 20260508074032 | 44 | 0.0 | 0.0 | 0.00 | 0.00 | 0.00 | 99 | 1017.2 | |
| 20260508073020 | 44 | 0.0 | 0.0 | 0.00 | 0.00 | 0.00 | 99 | 1017.2 | |
| 20260508072025 | 44 | 0.0 | 0.0 | 0.00 | 0.00 | 0.00 | 99 | 1017.2 | |
| 20260508071030 | 44 | 0.0 | 0.0 | 0.00 | 0.00 | 0.00 | 99 | 1017.3 | |
| 20260508070018 | 44 | 0.0 | 0.0 | 0.00 | 0.00 | 0.00 | 98 | 1017.3 | |
| 20260508065022 | 45 | 0.0 | 0.0 | 0.00 | 0.00 | 0.00 | 98 | 1017.3 | |
| 20260508064028 | 45 | 0.0 | 0.0 | 0.00 | 0.00 | 0.00 | 98 | 1017.5 | |
| 20260508063053 | 45 | 0.0 | 0.0 | 0.00 | 0.00 | 0.00 | 98 | 1017.6 | |
| 20260508062020 | 45 | 0.0 | 0.0 | 0.00 | 0.00 | 0.00 | 98 | 1017.6 | |
| 20260508061025 | 45 | 0.0 | 0.0 | 0.00 | 0.00 | 0.00 | 98 | 1017.6 | |
| 20260508060030 | 45 | 0.0 | 0.0 | 0.00 | 0.00 | 0.00 | 98 | 1017.7 | |
| 20260508055018 | 46 | 0.0 | 0.0 | 0.00 | 0.00 | 0.00 | 98 | 1017.7 | |
| 20260508054023 | 46 | 0.0 | 0.0 | 0.00 | 0.00 | 0.00 | 98 | 1017.7 | |
| 20260508053028 | 46 | 0.0 | 0.0 | 0.00 | 0.00 | 0.00 | 98 | 1017.4 | |
| 20260508052017 | 46 | 0.0 | 0.0 | 0.00 | 0.00 | 0.00 | 98 | 1017.6 | |
| 20260508051021 | 46 | 0.0 | 0.9 | 0.00 | 0.00 | 0.00 | 98 | 1017.6 | |
| 20260508050047 | 46 | 0.0 | 0.0 | 0.00 | 0.00 | 0.00 | 97 | 1017.7 | |
| 20260508045031 | 46 | 0.0 | 0.0 | 0.00 | 0.00 | 0.00 | 97 | 1017.7 | |
| 20260508044040 | 47 | 326 | 0.0 | 0.9 | 0.00 | 0.00 | 0.00 | 97 | 1017.6 |
| 20260508043024 | 47 | 0.0 | 0.0 | 0.00 | 0.00 | 0.00 | 97 | 1017.4 | |
| 20260508042029 | 47 | 0.0 | 0.0 | 0.00 | 0.00 | 0.00 | 97 | 1017.5 | |
| 20260508041018 | 47 | 0.0 | 0.0 | 0.00 | 0.00 | 0.00 | 96 | 1017.4 | |
| 20260508040022 | 47 | 0.0 | 0.0 | 0.00 | 0.00 | 0.00 | 96 | 1017.5 | |
| 20260508035027 | 48 | 0.0 | 0.0 | 0.00 | 0.00 | 0.00 | 96 | 1017.7 | |
| 20260508034032 | 48 | 0.0 | 0.0 | 0.00 | 0.00 | 0.00 | 95 | 1017.7 | |
| 20260508033020 | 48 | 0.0 | 0.0 | 0.00 | 0.00 | 0.00 | 95 | 1017.5 | |
| 20260508032024 | 49 | 0.0 | 0.0 | 0.00 | 0.00 | 0.00 | 94 | 1017.4 | |
| 20260508031030 | 49 | 0.0 | 0.0 | 0.00 | 0.00 | 0.00 | 94 | 1017.4 | |
| 20260508030018 | 49 | 0.0 | 0.0 | 0.00 | 0.00 | 0.00 | 93 | 1017.5 | |
| 20260508025023 | 49 | 0.0 | 0.0 | 0.00 | 0.00 | 0.00 | 92 | 1017.4 | |
| 20260508024048 | 50 | 0.0 | 0.0 | 0.00 | 0.00 | 0.00 | 91 | 1017.2 | |
| 20260508023033 | 49 | 0.0 | 0.0 | 0.00 | 0.00 | 0.00 | 89 | 1017.3 |